| time (UTC) | temp F | wind direction | speed MPH | gust MPH | rain 1hr in | rain 24hr in | rain mn in | humidity % | barometer mb |
| 20260504140357 | 85 | 0.0 | 0.0 | 0.00 | 0.00 | 0.00 | 28 | 1007.2 | |
| 20260504130619 | 86 | 0.0 | 0.0 | 0.00 | 0.00 | 0.00 | 27 | 1007.5 | |
| 20260504110128 | 85 | 0.0 | 0.0 | 0.00 | 0.00 | 0.00 | 26 | 1007.6 | |
| 20260504100350 | 84 | 0.0 | 0.0 | 0.00 | 0.00 | 0.00 | 28 | 1008.3 | |
| 20260504081800 | 79 | 0.0 | 0.0 | 0.00 | 0.00 | 0.00 | 35 | 1009.2 | |
| 20260504080823 | 78 | 0.0 | 0.0 | 0.00 | 0.00 | 0.00 | 36 | 1009.2 | |
| 20260504070106 | 76 | 0.0 | 0.0 | 0.00 | 0.00 | 0.00 | 41 | 1009.5 | |
| 20260504050546 | 66 | 0.0 | 0.0 | 0.00 | 0.00 | 0.00 | 50 | 1010.0 | |
| 20260504045610 | 65 | 0.0 | 0.0 | 0.00 | 0.00 | 0.00 | 50 | 1009.9 | |
| 20260504044634 | 65 | 0.0 | 0.0 | 0.00 | 0.00 | 0.00 | 52 | 1010.0 | |
| 20260504043657 | 64 | 0.0 | 0.0 | 0.00 | 0.00 | 0.00 | 53 | 1010.1 | |
| 20260504042720 | 63 | 0.0 | 0.0 | 0.00 | 0.00 | 0.00 | 56 | 1010.0 | |
| 20260504041743 | 62 | 0.0 | 0.0 | 0.00 | 0.00 | 0.00 | 56 | 1010.2 | |
| 20260504040805 | 61 | 0.0 | 0.0 | 0.00 | 0.00 | 0.00 | 56 | 1010.0 | |
| 20260504035827 | 61 | 0.0 | 0.0 | 0.00 | 0.00 | 0.00 | 56 | 1010.1 | |
| 20260504034850 | 60 | 0.0 | 0.0 | 0.00 | 0.00 | 0.00 | 57 | 1010.2 | |
| 20260504033912 | 60 | 0.0 | 0.0 | 0.00 | 0.00 | 0.00 | 57 | 1010.2 | |
| 20260504032935 | 60 | 0.0 | 0.0 | 0.00 | 0.00 | 0.00 | 55 | 1010.1 | |
| 20260504031958 | 60 | 0.0 | 0.0 | 0.00 | 0.00 | 0.00 | 55 | 1010.1 | |
| 20260504031021 | 60 | 0.0 | 0.0 | 0.00 | 0.00 | 0.00 | 54 | 1010.1 | |
| 20260504030044 | 60 | 0.0 | 0.0 | 0.00 | 0.00 | 0.00 | 54 | 1010.1 | |
| 20260504025107 | 60 | 0.0 | 0.0 | 0.00 | 0.00 | 0.00 | 54 | 1010.0 | |
| 20260504024131 | 60 | 0.0 | 0.0 | 0.00 | 0.00 | 0.00 | 53 | 1010.1 | |
| 20260504023154 | 60 | 0.0 | 0.0 | 0.00 | 0.00 | 0.00 | 53 | 1010.0 | |
| 20260504022217 | 60 | 0.0 | 0.0 | 0.00 | 0.00 | 0.00 | 52 | 1010.0 | |
| 20260504021240 | 61 | 0.0 | 0.0 | 0.00 | 0.00 | 0.00 | 51 | 1010.0 | |
| 20260504020303 | 61 | 0.0 | 0.0 | 0.00 | 0.00 | 0.00 | 49 | 1010.0 | |
| 20260504015327 | 61 | 0.0 | 0.0 | 0.00 | 0.00 | 0.00 | 49 | 1010.1 | |
| 20260504014350 | 62 | 0.0 | 0.0 | 0.00 | 0.00 | 0.00 | 48 | 1010.1 | |
| 20260504013413 | 62 | 0.0 | 0.0 | 0.00 | 0.00 | 0.00 | 47 | 1010.1 | |
| 20260504012436 | 62 | 0.0 | 0.0 | 0.00 | 0.00 | 0.00 | 46 | 1010.1 | |
| 20260504011459 | 62 | 0.0 | 0.0 | 0.00 | 0.00 | 0.00 | 46 | 1010.1 | |
| 20260504010522 | 62 | 0.0 | 0.0 | 0.00 | 0.00 | 0.00 | 45 | 1010.1 | |
| 20260504005545 | 62 | 0.0 | 0.0 | 0.00 | 0.00 | 0.00 | 45 | 1010.1 | |
| 20260504004609 | 62 | 0.0 | 0.0 | 0.00 | 0.00 | 0.00 | 45 | 1010.1 | |
| 20260504003632 | 62 | 0.0 | 0.0 | 0.00 | 0.00 | 0.00 | 44 | 1010.2 | |
| 20260504002655 | 62 | 0.0 | 0.0 | 0.00 | 0.00 | 0.00 | 44 | 1010.1 | |
| 20260504001718 | 62 | 0.0 | 0.0 | 0.00 | 0.00 | 0.00 | 44 | 1010.2 | |
| 20260504000742 | 62 | 0.0 | 0.0 | 0.00 | 0.00 | 0.00 | 43 | 1010.2 | |
| 20260503235805 | 62 | 0.0 | 0.0 | 0.00 | 0.00 | 0.00 | 43 | 1010.1 | |
| 20260503234828 | 62 | 0.0 | 0.0 | 0.00 | 0.00 | 0.00 | 43 | 1010.1 | |
| 20260503233851 | 62 | 0.0 | 0.0 | 0.00 | 0.00 | 0.00 | 42 | 1010.2 | |
| 20260503232914 | 62 | 0.0 | 0.0 | 0.00 | 0.00 | 0.00 | 42 | 1010.1 | |
| 20260503231938 | 62 | 0.0 | 0.0 | 0.00 | 0.00 | 0.00 | 43 | 1010.3 | |
| 20260503231001 | 63 | 0.0 | 0.0 | 0.00 | 0.00 | 0.00 | 42 | 1010.2 | |
| 20260503230024 | 63 | 0.0 | 0.0 | 0.00 | 0.00 | 0.00 | 41 | 1010.3 | |
| 20260503225048 | 63 | 0.0 | 0.0 | 0.00 | 0.00 | 0.00 | 41 | 1010.2 | |
| 20260503224111 | 64 | 0.0 | 0.0 | 0.00 | 0.00 | 0.00 | 40 | 1010.2 | |
| 20260503223135 | 64 | 0.0 | 0.0 | 0.00 | 0.00 | 0.00 | 40 | 1010.1 | |
| 20260503222158 | 64 | 0.0 | 0.0 | 0.00 | 0.00 | 0.00 | 39 | 1010.1 | |
| 20260503221222 | 65 | 0.0 | 0.0 | 0.00 | 0.00 | 0.00 | 39 | 1010.1 | |
| 20260503220245 | 65 | 0.0 | 0.0 | 0.00 | 0.00 | 0.00 | 38 | 1010.2 | |
| 20260503215309 | 65 | 0.0 | 0.0 | 0.00 | 0.00 | 0.00 | 38 | 1010.2 | |
| 20260503214332 | 65 | 0.0 | 0.0 | 0.00 | 0.00 | 0.00 | 38 | 1010.0 | |
| 20260503213355 | 65 | 0.0 | 0.0 | 0.00 | 0.00 | 0.00 | 39 | 1010.1 | |
| 20260503212418 | 65 | 0.0 | 0.0 | 0.00 | 0.00 | 0.00 | 38 | 1010.1 | |
| 20260503210504 | 65 | 0.0 | 0.0 | 0.00 | 0.00 | 0.00 | 40 | 1010.2 | |
| 20260503205527 | 65 | 0.0 | 0.0 | 0.00 | 0.00 | 0.00 | 39 | 1010.2 | |
| 20260503204551 | 65 | 0.0 | 0.0 | 0.00 | 0.00 | 0.00 | 41 | 1010.4 | |
| 20260503203615 | 65 | 0.0 | 0.0 | 0.00 | 0.00 | 0.00 | 40 | 1010.3 | |
| 20260503202638 | 66 | 0.0 | 0.0 | 0.00 | 0.00 | 0.00 | 40 | 1010.3 | |
| 20260503201701 | 66 | 0.0 | 0.0 | 0.00 | 0.00 | 0.00 | 40 | 1010.4 | |
| 20260503200725 | 66 | 0.0 | 0.0 | 0.00 | 0.00 | 0.00 | 39 | 1010.3 | |
| 20260503195748 | 66 | 0.0 | 0.0 | 0.00 | 0.00 | 0.00 | 39 | 1010.4 | |
| 20260503194811 | 66 | 0.0 | 0.0 | 0.00 | 0.00 | 0.00 | 38 | 1010.3 | |
| 20260503193835 | 67 | 0.0 | 0.0 | 0.00 | 0.00 | 0.00 | 38 | 1010.4 | |
| 20260503192859 | 67 | 0.0 | 0.0 | 0.00 | 0.00 | 0.00 | 38 | 1010.4 | |
| 20260503191922 | 67 | 0.0 | 0.0 | 0.00 | 0.00 | 0.00 | 38 | 1010.4 | |
| 20260503190947 | 68 | 0.0 | 0.0 | 0.00 | 0.00 | 0.00 | 39 | 1010.4 | |
| 20260503190011 | 68 | 0.0 | 0.0 | 0.00 | 0.00 | 0.00 | 37 | 1010.3 | |
| 20260503185035 | 69 | 0.0 | 0.0 | 0.00 | 0.00 | 0.00 | 35 | 1010.1 | |
| 20260503184100 | 70 | 0.0 | 0.0 | 0.00 | 0.00 | 0.00 | 35 | 1010.0 | |
| 20260503183124 | 71 | 0.0 | 0.0 | 0.00 | 0.00 | 0.00 | 33 | 1009.8 | |
| 20260503182148 | 73 | 0.0 | 0.0 | 0.00 | 0.00 | 0.00 | 31 | 1009.7 | |
| 20260503181213 | 74 | 0.0 | 0.0 | 0.00 | 0.00 | 0.00 | 29 | 1009.5 | |
| 20260503180238 | 76 | 0.0 | 0.0 | 0.00 | 0.00 | 0.00 | 27 | 1009.2 | |
| 20260503175304 | 77 | 0.0 | 0.0 | 0.00 | 0.00 | 0.00 | 26 | 1009.2 | |
| 20260503174326 | 78 | 0.0 | 0.0 | 0.00 | 0.00 | 0.00 | 24 | 1009.1 | |
| 20260503173350 | 79 | 0.0 | 0.0 | 0.00 | 0.00 | 0.00 | 24 | 1008.9 | |
| 20260503172414 | 79 | 0.0 | 0.0 | 0.00 | 0.00 | 0.00 | 23 | 1008.9 | |
| 20260503171437 | 80 | 0.0 | 0.0 | 0.00 | 0.00 | 0.00 | 22 | 1008.7 | |
| 20260503170501 | 80 | 0.0 | 0.0 | 0.00 | 0.00 | 0.00 | 21 | 1008.8 | |
| 20260503150946 | 83 | 0.0 | 0.0 | 0.00 | 0.00 | 0.00 | 18 | 1009.0 |